Theta_e
328 326 325 324 321 320 320 321 321 318 316 316 318 314 311 310 309 306 299 297 295 295 294 292 289 289 291 291 291 290 289 289 290 290 291 292 292 297 307 314 318 321 323 327 328 329 327 327 326 327 327 325 325 324 324 324 325 325 324 323 322 321 321 320 320 321 321 321 321 321 324 324 324 323 325 325 325 325 327 328 328 328 329 330 330
327 326 324 322 322 319 317 318 318 317 317 316 314 313 312 309 308 305 302 297 296 295 295 294 291 290 290 291 290 290 290 290 290 292 291 292 293 296 303 310 315 319 322 325 327 328 329 328 328 327 327 326 325 325 323 324 325 324 324 321 320 321 321 320 320 321 320 319 319 321 321 322 323 322 323 323 323 324 324 324 324 326 327 328 329
327 325 324 322 320 319 317 315 316 316 317 317 313 313 312 312 310 308 304 300 298 294 294 294 290 290 289 291 290 289 290 289 290 291 292 293 292 293 297 304 308 314 319 323 326 328 329 329 329 328 327 328 327 325 324 324 326 326 324 321 321 321 320 319 320 320 320 319 319 320 320 321 320 321 321 321 321 322 322 323 323 323 323 325 326
324 323 323 323 322 319 317 316 317 316 316 316 312 311 311 309 308 307 304 301 296 293 292 294 291 289 288 290 289 289 289 290 289 290 292 293 293 293 294 296 302 308 313 318 323 326 327 329 329 329 329 328 328 327 324 324 325 324 322 323 322 321 320 320 319 319 319 319 319 319 319 320 320 320 319 320 320 320 320 320 321 321 322 322 323
320 321 320 321 319 318 317 317 317 315 314 313 312 310 309 307 305 304 303 300 297 294 292 291 292 290 288 289 289 289 289 288 290 290 291 292 292 292 294 294 295 302 306 311 316 319 323 325 327 328 328 328 329 328 326 325 324 325 324 325 323 323 321 320 319 318 318 319 319 319 319 319 320 320 319 319 319 318 319 319 319 319 320 321 321
322 321 321 321 319 318 318 316 316 315 313 312 311 310 310 308 306 305 304 304 302 297 295 295 292 289 289 288 288 288 287 288 289 289 289 291 292 291 293 294 293 296 297 304 309 312 317 321 324 326 326 327 328 328 329 330 326 325 326 324 324 321 321 320 319 318 319 318 319 319 319 319 319 319 318 318 318 317 317 318 319 319 320 320 320
322 321 317 319 319 317 317 317 313 311 312 312 312 309 310 310 306 307 301 301 301 297 294 295 293 294 291 290 289 288 287 288 287 288 289 289 289 291 293 293 294 295 296 295 300 303 310 316 320 322 323 325 326 327 328 329 329 329 326 325 326 324 324 322 320 318 318 318 319 319 319 319 319 318 318 317 317 317 317 317 318 318 319 319 319
319 319 319 317 316 315 313 311 310 310 310 310 311 310 308 308 306 308 304 302 300 301 294 295 291 292 290 289 288 289 288 286 287 288 288 288 289 289 291 293 293 293 298 295 295 297 304 310 315 318 319 320 322 324 326 327 328 328 328 326 327 328 324 319 320 319 318 318 318 319 319 319 318 318 318 317 317 317 317 317 317 318 317 318 319
316 316 316 315 314 313 312 310 309 311 310 309 310 309 308 307 303 304 307 307 301 301 297 293 292 290 288 288 288 288 288 287 287 288 289 288 287 288 289 292 292 299 294 293 294 295 298 306 310 312 312 314 318 321 323 326 327 328 328 329 328 329 322 320 320 319 319 318 319 318 318 318 318 317 317 317 317 316 316 316 316 316 316 317 317
312 314 313 312 312 311 310 310 310 310 309 309 308 306 305 306 306 301 300 302 301 299 299 295 291 290 289 288 288 287 287 287 287 291 288 289 288 288 289 289 291 293 293 291 292 293 294 298 304 305 305 309 316 320 322 324 325 326 327 327 327 326 322 320 321 319 319 318 318 318 317 317 317 317 317 317 316 316 315 315 315 314 315 315 316
309 310 310 310 309 309 309 309 309 309 308 307 305 304 303 303 303 302 298 295 296 295 295 293 292 289 289 289 287 287 287 287 288 288 287 287 288 291 288 290 289 291 292 290 291 291 292 294 293 295 296 305 311 315 318 320 321 322 325 326 327 324 323 322 320 319 318 318 317 316 316 317 316 316 316 316 316 315 315 314 314 314 315 315 315
305 307 307 306 306 306 306 306 307 308 307 305 304 304 303 302 301 301 299 297 295 293 293 293 291 290 290 290 287 286 287 288 287 288 288 288 288 287 288 289 287 289 288 289 291 290 290 291 292 293 294 298 305 308 311 313 313 318 321 323 327 328 323 322 320 320 319 317 317 317 316 316 316 317 316 316 315 315 315 314 314 314 315 315 315
301 302 302 303 303 303 304 304 306 305 304 304 304 303 303 302 301 299 299 297 295 292 293 295 293 294 291 290 289 287 289 289 288 288 288 288 287 287 288 289 288 287 288 287 288 288 288 290 291 291 293 292 295 301 304 307 308 312 317 320 322 326 328 324 322 321 319 319 318 317 317 316 316 316 315 315 315 316 314 314 314 314 314 315 315
296 298 298 300 301 300 300 300 302 303 303 302 300 299 299 298 299 297 295 297 296 294 294 295 292 290 291 290 289 289 288 287 287 288 287 287 287 288 288 288 288 288 286 285 286 287 287 288 287 290 291 292 293 294 295 296 299 306 312 315 318 321 324 328 323 320 320 320 318 318 317 315 314 315 315 315 315 315 315 315 314 314 314 314 315
293 294 295 296 297 298 298 298 298 299 299 299 299 299 298 297 296 297 296 293 292 293 293 294 293 290 290 289 287 285 290 286 285 286 287 288 287 287 287 287 288 288 286 285 287 287 286 287 287 288 289 290 290 291 293 295 295 299 303 307 311 316 319 322 326 324 320 321 319 319 318 315 315 315 316 315 314 314 314 314 314 314 315 315 315
290 291 292 292 293 294 294 295 295 295 296 295 295 296 296 297 297 297 296 293 291 290 291 293 292 293 292 289 286 284 287 287 283 286 283 285 286 286 286 288 288 286 285 287 288 287 287 286 287 287 288 288 289 289 291 291 294 296 296 299 302 309 315 319 322 325 325 320 320 319 318 316 316 316 316 314 313 314 314 314 313 313 313 314 315
288 289 290 290 291 291 292 292 292 293 293 293 293 293 293 293 295 295 294 294 292 291 291 292 293 294 293 288 288 287 287 286 286 291 283 286 285 285 286 287 287 286 286 287 287 287 287 287 287 287 287 287 288 288 289 290 291 292 294 294 297 302 307 314 318 320 323 325 321 319 318 317 317 315 314 314 314 313 314 313 313 313 312 313 314
287 287 288 289 289 289 290 290 290 291 291 291 291 292 292 292 292 293 292 292 292 291 291 292 292 293 292 291 292 289 287 287 287 287 286 285 286 283 284 285 285 286 287 287 287 288 287 287 287 287 288 287 287 287 288 288 289 289 290 292 299 302 305 309 314 318 320 322 323 324 324 319 318 317 315 314 314 314 314 314 313 312 312 313 314
284 285 286 287 287 287 288 288 288 289 289 290 289 289 290 291 291 291 291 292 292 291 292 292 292 292 292 292 290 289 289 287 285 286 286 287 283 285 288 285 285 285 286 287 287 287 287 287 287 287 287 287 287 287 287 288 291 292 295 297 301 303 304 306 309 312 316 318 320 323 323 323 321 319 317 314 314 314 314 314 313 312 312 312 313
283 284 284 285 285 285 286 286 286 287 287 287 288 288 289 290 290 290 290 291 291 290 290 291 289 291 292 291 291 291 289 288 288 286 285 283 286 285 284 286 284 284 286 286 287 287 287 287 287 287 287 287 287 287 287 288 287 288 290 296 301 303 304 305 306 308 310 313 317 319 322 322 322 321 318 316 315 314 314 314 312 312 312 312 313
283 283 283 283 284 284 284 284 284 285 285 285 286 287 287 287 288 288 288 289 289 289 289 289 289 289 289 288 289 290 289 289 288 287 285 284 285 286 286 285 284 284 285 285 286 287 287 287 287 287 288 287 287 287 287 287 287 287 291 295 299 303 305 306 305 307 308 309 311 314 318 321 322 321 321 318 316 315 314 314 313 312 312 312 312
282 282 282 282 282 283 282 282 282 283 284 283 284 284 285 286 286 287 287 287 287 288 288 287 288 288 288 289 288 287 287 287 287 286 285 285 284 284 286 285 285 286 285 285 286 286 286 287 286 287 287 287 287 287 287 287 287 288 290 294 298 300 303 304 305 306 307 308 309 310 312 316 319 320 321 320 319 317 315 314 313 312 311 312 312
281 281 281 281 281 282 282 282 282 282 282 282 282 282 283 284 284 285 286 286 286 286 287 287 287 287 287 287 287 288 287 286 285 286 286 285 285 285 286 287 286 286 287 286 287 286 286 285 286 286 287 287 287 286 286 286 288 290 292 294 296 298 300 302 303 304 305 306 308 309 310 311 313 315 318 320 320 319 317 315 314 313 312 311 312
280 280 280 280 281 280 281 281 281 281 281 281 281 281 282 282 282 283 283 284 285 285 285 285 285 285 286 286 286 287 287 287 287 287 286 286 286 285 285 285 286 287 288 286 286 286 286 286 286 286 287 287 287 287 286 287 287 291 290 292 295 298 300 302 304 303 304 304 306 307 308 309 311 311 313 315 318 319 318 317 315 314 313 312 312
279 279 279 279 280 280 280 280 280 280 280 280 280 280 281 281 281 281 281 282 282 282 282 282 283 283 283 284 284 285 285 286 286 286 285 285 284 283 284 284 283 285 285 284 286 282 284 286 286 286 286 287 287 287 287 286 286 289 291 290 294 296 298 300 302 303 304 304 305 306 307 308 309 310 311 312 315 319 318 315 315 314 313 312 312
278 278 279 279 279 279 279 279 279 279 279 279 279 279 279 279 280 280 279 281 281 280 280 281 281 281 280 281 282 282 284 285 284 285 284 283 282 282 282 282 283 284 286 286 283 286 285 283 284 285 285 285 286 286 286 286 286 289 291 289 290 294 296 298 300 301 302 303 304 306 307 307 308 309 310 312 315 316 317 316 316 314 313 313 313
278 278 279 278 278 278 279 278 278 278 278 278 279 278 278 278 279 278 278 280 279 279 279 280 280 280 280 280 282 282 282 282 282 283 284 284 283 283 282 280 281 282 283 285 286 285 286 286 285 285 285 285 285 286 286 285 287 290 290 288 287 291 294 296 299 301 301 302 303 304 305 307 308 308 310 312 314 315 316 316 315 315 314 313 313
278 278 278 278 278 278 278 278 278 278 278 278 278 278 278 277 277 277 277 280 278 278 278 279 279 279 279 280 280 280 281 281 282 282 282 283 283 283 281 280 279 279 282 281 283 284 284 285 283 284 285 285 286 285 287 287 286 290 289 287 286 287 291 295 298 300 301 301 302 303 304 305 307 308 309 310 311 313 314 315 315 313 312 311 311
279 278 277 277 277 278 277 277 277 277 277 278 278 278 278 277 277 277 276 277 277 277 278 278 278 278 279 279 279 280 280 281 281 282 281 281 282 281 281 281 281 279 278 279 281 282 282 282 284 283 284 284 285 286 285 284 286 287 286 286 286 286 289 293 296 298 299 301 302 302 303 304 306 307 307 309 310 311 312 312 311 311 311 311 311
278 278 277 277 277 278 276 276 276 276 276 276 277 277 277 277 277 277 277 277 276 276 276 277 277 278 278 278 278 278 279 279 280 280 280 281 280 281 281 281 280 280 279 278 279 282 283 283 283 285 283 284 285 285 285 285 287 288 286 285 285 286 290 293 294 296 297 299 300 301 302 303 305 306 306 307 308 310 310 310 310 310 310 310 311
277 277 277 277 277 276 276 276 276 276 276 276 276 276 276 276 276 276 276 276 276 276 276 276 277 277 276 276 277 277 278 278 279 279 280 280 280 279 280 280 280 280 280 279 278 280 283 283 283 283 282 283 286 286 286 286 287 288 286 285 285 288 290 290 292 294 296 297 298 299 301 302 303 305 306 306 307 308 309 309 308 308 308 309 310
277 277 277 276 277 276 276 276 276 276 276 275 275 275 275 275 275 275 275 275 275 275 275 276 276 276 275 275 276 276 277 277 277 278 278 279 280 280 280 280 280 280 280 279 278 279 283 283 284 285 285 285 286 285 286 286 287 288 286 286 285 288 287 286 290 292 294 295 297 298 300 301 302 303 305 306 306 307 307 307 307 307 307 307 308
276 276 276 276 276 276 276 276 275 275 275 275 276 275 275 275 275 275 275 275 274 275 275 275 275 275 275 275 275 275 276 276 276 277 277 278 278 279 279 279 279 279 279 278 278 278 281 282 283 283 284 283 284 284 284 285 285 285 287 285 285 285 285 285 285 288 291 293 295 296 298 299 301 302 304 305 305 305 305 306 306 306 306 307 306
276 276 275 276 275 275 275 275 275 274 274 274 274 274 274 274 274 276 275 274 274 274 274 274 274 275 275 274 275 275 275 276 276 276 276 277 277 277 278 278 278 279 279 279 278 278 278 281 281 283 282 283 282 284 283 284 284 284 284 285 285 284 285 284 284 285 289 292 293 295 296 298 299 301 302 303 304 304 304 305 304 304 305 305 305
275 275 274 274 275 274 274 274 274 274 274 274 274 274 274 274 274 274 275 274 274 274 274 274 274 274 274 274 274 275 276 275 275 276 276 276 276 276 277 278 277 278 279 279 279 278 278 278 280 280 281 282 282 282 282 283 284 284 284 285 285 285 285 284 284 285 288 291 293 294 296 297 298 299 300 302 303 304 303 303 303 303 303 304 304
274 274 274 274 274 273 273 273 273 273 273 273 273 273 274 274 274 274 274 274 274 274 274 274 274 274 274 274 274 275 275 274 275 275 275 276 276 276 276 277 277 277 278 279 279 278 278 277 279 279 281 281 281 282 282 282 282 282 283 284 284 284 284 284 284 284 286 290 292 293 294 295 296 297 298 300 301 303 303 303 302 302 302 302 302
274 273 273 273 273 273 273 272 272 272 273 273 273 273 273 273 273 273 273 273 273 273 274 274 275 274 274 274 274 275 275 274 275 275 275 275 276 276 276 276 277 277 278 278 278 278 278 277 278 279 280 280 281 282 282 281 282 282 281 281 282 283 283 283 283 284 287 289 290 291 292 294 295 296 297 299 300 301 302 302 302 301 300 301 300
273 273 272 272 272 272 272 272 272 272 272 272 272 272 272 272 273 273 273 273 273 274 274 274 274 274 274 274 275 275 274 274 274 275 275 275 275 275 275 276 276 277 277 277 277 277 277 277 277 277 279 278 279 280 281 280 280 280 281 281 281 281 281 282 283 284 284 284 284 287 289 291 293 294 296 297 299 300 301 301 301 301 299 298 299
272 271 271 271 271 271 271 271 271 271 271 271 271 271 272 272 272 273 273 273 273 274 274 274 274 274 274 274 274 274 274 274 274 274 274 275 275 275 275 276 276 276 276 277 277 277 277 276 277 277 277 278 279 278 280 280 280 280 280 280 280 281 280 281 282 283 283 283 285 288 287 288 289 290 292 295 297 298 300 300 300 300 298 297 298
270 270 270 270 270 270 270 270 270 270 270 270 270 270 271 272 272 272 272 272 272 272 273 273 273 273 273 274 274 274 274 274 274 274 275 275 276 275 277 277 277 277 277 277 277 277 277 277 276 276 277 277 278 278 279 278 278 279 279 278 278 280 280 280 280 281 282 282 282 282 286 287 288 289 291 292 294 296 298 298 298 297 296 297 298
269 269 269 269 268 268 269 269 269 269 269 269 269 270 271 272 272 272 272 272 272 271 271 272 272 272 272 272 273 273 274 276 277 277 278 278 276 276 277 278 277 277 276 276 276 277 277 277 277 278 277 277 277 277 277 277 277 277 279 278 278 280 280 280 280 281 282 281 281 282 282 282 282 283 284 285 288 291 293 295 296 295 296 298 298
267 267 267 267 267 267 266 267 267 267 267 268 269 273 275 273 272 272 272 272 272 271 271 271 271 271 271 272 272 274 275 276 276 277 278 278 278 277 276 276 276 276 276 276 276 276 276 276 276 277 276 276 277 277 277 277 278 279 278 278 278 279 280 279 280 281 281 281 280 280 281 282 282 282 283 283 285 287 289 291 293 295 295 298 298
265 265 266 266 265 265 265 265 265 266 266 267 271 273 275 276 274 273 272 272 272 271 271 270 270 270 271 271 271 272 272 272 272 274 275 276 276 277 278 278 278 276 275 275 275 276 275 275 276 277 277 277 278 278 278 278 279 278 278 279 278 279 278 277 277 280 281 281 279 279 281 282 281 281 281 282 283 284 286 288 293 295 296 297 297
263 263 264 264 264 264 264 264 264 264 265 268 271 273 274 275 276 273 272 271 271 271 271 270 270 270 270 270 269 269 269 269 269 270 271 273 273 274 275 276 277 278 278 276 274 274 274 275 275 276 276 277 278 279 279 279 279 279 279 279 278 278 278 278 278 278 279 281 279 278 279 282 281 281 281 282 283 283 285 288 292 294 296 297 297
262 262 263 263 263 263 263 263 263 263 263 267 270 273 274 275 275 274 272 271 270 270 270 270 269 269 268 268 268 268 268 271 270 269 269 269 272 273 274 275 275 276 277 278 279 276 276 274 274 274 275 275 276 277 280 280 281 279 279 279 279 278 278 278 279 279 280 279 279 278 279 281 280 279 280 282 282 283 284 288 291 293 295 296 297
262 261 261 262 262 262 262 262 262 262 263 266 270 273 274 274 275 274 271 271 270 269 269 269 268 268 267 267 267 267 268 268 269 269 269 269 269 270 270 271 271 273 275 276 276 277 276 274 274 273 275 275 274 276 277 279 278 278 279 279 280 280 279 279 280 281 281 281 279 278 279 279 279 279 279 281 282 282 283 286 289 291 293 295 296
261 260 260 260 260 260 261 261 261 261 262 268 271 272 273 274 274 274 270 269 269 268 268 268 268 268 268 268 267 267 267 268 268 270 269 269 270 269 270 270 270 271 271 272 272 273 273 273 273 273 273 275 275 276 277 279 279 279 279 278 279 280 281 282 282 282 282 280 280 279 277 281 280 278 279 281 281 281 282 286 289 290 292 293 295
258 259 260 258 260 259 260 260 260 260 261 267 269 271 272 273 274 270 268 268 267 267 267 268 268 268 268 268 267 268 268 268 270 273 273 271 270 269 269 270 270 271 271 274 276 277 275 275 275 275 275 276 278 277 277 277 278 278 280 280 281 280 279 278 277 280 280 280 280 279 278 280 279 278 279 281 279 280 282 282 286 289 291 292 293
259 259 258 259 259 259 259 259 259 259 260 264 269 270 271 273 271 268 268 267 267 267 267 267 268 268 268 268 268 268 268 268 271 274 274 274 270 270 270 270 270 271 271 273 276 278 278 278 279 279 280 280 281 281 282 282 280 280 278 277 276 278 278 276 277 278 279 281 279 280 280 279 280 278 279 278 278 280 280 281 282 287 290 291 292
258 258 258 258 258 258 259 258 259 259 260 263 268 270 271 271 271 268 267 267 267 267 267 268 268 268 268 270 270 269 268 268 272 274 275 274 272 271 271 271 270 270 271 273 273 273 277 278 278 278 279 279 279 280 280 280 280 279 275 273 275 277 276 278 277 278 280 281 280 280 278 278 281 279 277 276 276 278 279 280 282 283 287 289 291
257 257 258 257 257 258 258 258 261 261 260 261 266 268 270 271 270 268 268 267 267 267 267 267 268 268 268 269 271 272 271 272 276 276 277 275 273 272 272 271 270 270 271 272 271 271 271 271 272 273 274 275 275 274 274 278 279 278 276 275 275 274 273 274 276 278 278 279 282 281 278 278 280 277 277 271 274 275 278 279 281 281 282 284 287
Wind_Speed
6 5 5 4 3 3 2 3 4 6 4 4 6 5 5 5 5 4 3 3 2 3 1 1 1 1 1 2 2 3 2 3 3 3 3 3 3 5 8 9 8 7 6 6 6 7 7 8 7 8 8 6 6 6 5 5 6 6 4 5 6 4 4 4 4 5 6 6 8 8 4 4 5 6 8 6 6 8 7 8 8 6 7 5 4
5 6 5 4 5 5 2 3 3 5 4 5 5 5 5 4 4 4 4 3 3 2 1 0 1 1 1 1 2 2 2 2 3 3 3 3 3 4 7 9 10 9 8 7 7 7 8 9 8 8 9 7 7 5 4 6 7 5 6 4 4 7 7 5 5 4 4 6 6 8 7 4 7 6 8 8 7 10 9 6 7 8 9 7 6
6 6 5 4 1 2 6 3 2 4 3 3 4 5 4 5 5 5 5 4 3 1 1 1 1 2 1 1 2 3 3 2 3 3 3 3 3 3 4 8 10 10 9 8 7 7 7 8 9 9 9 9 9 7 6 7 9 9 7 1 5 7 5 4 4 3 5 6 7 7 8 2 3 5 5 6 7 8 10 9 8 6 5 6 7
4 5 5 5 7 6 4 2 4 4 6 4 5 4 4 3 3 3 2 2 2 1 0 1 1 2 1 1 1 2 3 4 3 3 4 4 4 4 4 5 7 10 11 11 10 8 8 8 8 9 8 9 10 9 6 7 10 7 4 7 9 7 6 7 3 5 5 5 6 7 6 6 4 5 6 7 6 7 7 8 7 7 6 4 4
3 3 4 4 2 2 3 7 6 2 1 2 3 3 4 3 3 3 3 3 2 1 0 0 1 2 1 1 0 1 1 3 3 4 4 4 5 4 4 3 4 7 9 10 11 11 10 9 8 8 7 8 8 8 9 11 8 9 8 10 8 10 7 6 5 3 5 6 6 6 6 6 5 6 5 5 6 7 7 7 8 7 7 7 5
3 2 3 4 4 6 6 4 4 4 4 4 4 3 4 4 4 4 3 3 3 2 1 2 2 1 2 1 2 2 1 2 2 3 3 4 4 4 4 4 4 4 5 8 10 11 11 10 10 8 8 8 9 9 9 12 9 10 11 8 9 8 7 6 6 6 6 5 6 6 6 5 5 6 5 5 7 7 7 8 8 6 8 9 7
1 2 3 2 3 4 4 3 1 4 4 4 5 3 4 5 4 4 3 3 2 2 2 3 3 4 3 1 3 2 1 2 2 3 3 3 3 3 4 4 4 4 5 5 7 9 10 12 11 10 10 9 9 10 10 11 11 12 12 9 13 14 16 10 7 4 6 4 6 7 6 5 6 6 7 7 6 7 8 5 8 7 9 9 9
7 6 6 6 5 6 6 6 5 4 2 1 3 5 4 4 4 5 4 3 3 4 4 4 3 4 2 2 2 2 3 3 4 4 4 2 2 3 3 4 4 4 4 5 5 5 9 10 11 11 11 10 10 11 11 12 12 13 13 12 14 21 13 3 8 6 6 6 4 7 8 6 6 8 8 8 6 5 7 7 8 8 7 8 10
7 6 6 5 5 5 5 6 4 4 4 5 5 6 4 3 2 2 2 1 2 3 3 2 2 2 2 3 2 2 4 3 4 4 3 4 4 3 3 4 3 4 4 5 4 5 7 8 10 11 10 10 11 11 11 12 12 13 13 14 14 20 6 7 6 6 7 6 7 8 8 8 8 7 6 6 7 7 8 9 9 9 9 10 10
10 8 7 6 6 5 4 5 5 4 4 4 4 4 4 5 4 4 4 4 3 4 4 3 2 3 3 3 3 3 4 4 3 2 2 4 4 4 4 3 4 5 5 4 3 5 4 6 8 8 9 10 12 12 12 11 12 12 13 15 17 16 7 7 10 7 8 8 8 8 5 7 7 8 9 9 9 8 9 9 9 10 10 10 10
11 10 10 9 9 8 7 6 4 4 4 4 5 4 4 4 4 4 4 3 3 3 3 3 4 3 4 4 3 4 3 2 2 4 4 4 4 4 2 5 4 4 4 3 4 4 4 4 5 5 6 9 10 12 13 13 13 13 13 13 15 12 11 11 8 9 7 9 9 3 4 6 9 10 9 10 10 9 9 10 10 10 10 10 10
10 9 9 9 8 7 5 4 5 6 7 7 4 3 4 4 4 3 3 2 3 3 3 2 2 3 5 5 3 4 5 4 3 5 4 4 4 3 5 4 4 4 4 4 5 4 4 4 4 5 5 6 9 10 11 12 12 13 13 13 14 15 14 12 10 13 13 8 6 6 5 7 8 11 12 11 10 9 10 11 11 10 10 10 10
11 10 10 9 9 7 9 9 7 7 6 5 3 4 4 4 3 3 3 4 2 2 1 0 2 4 2 3 5 3 5 3 5 5 5 4 3 4 5 5 5 5 4 3 4 4 4 4 4 4 5 4 6 8 9 10 10 12 13 14 14 14 15 16 16 15 10 12 9 8 10 11 12 11 12 12 11 12 12 12 12 11 11 11 11
11 11 11 10 10 9 9 8 7 6 5 5 6 6 6 5 2 3 2 2 1 1 1 1 3 2 4 6 4 6 3 2 5 5 4 4 4 5 6 4 6 4 3 3 4 4 4 4 4 5 5 5 5 5 6 6 7 10 12 13 14 15 15 15 18 16 11 14 12 12 12 11 10 10 11 12 13 13 13 12 12 12 12 12 12
11 11 10 10 10 10 9 8 10 8 9 9 8 8 6 5 4 3 3 2 2 1 1 2 0 1 1 2 3 7 4 4 2 3 5 5 3 4 3 4 7 5 3 3 6 4 4 4 4 4 5 5 5 5 5 6 6 9 10 12 13 14 15 16 16 18 18 13 16 17 15 12 9 12 14 15 14 14 14 13 13 12 12 13 12
11 10 10 10 10 10 9 10 10 9 8 9 10 10 8 7 5 4 2 2 2 2 0 1 2 2 4 1 3 1 8 2 3 6 3 5 2 4 3 6 5 4 2 4 6 5 6 4 5 6 5 5 5 5 6 5 7 9 10 10 11 13 15 16 16 16 18 19 19 18 17 13 13 12 14 14 15 15 15 13 13 14 14 14 14
10 10 9 10 9 9 9 9 9 9 8 9 8 8 7 7 7 6 4 1 3 2 2 1 0 1 0 2 3 1 2 4 8 7 2 2 2 2 3 4 5 4 4 6 5 6 6 5 6 5 6 6 5 6 6 6 6 5 7 9 10 11 13 16 17 17 17 18 20 20 15 13 14 14 14 15 15 16 15 14 14 14 14 14 15
10 10 10 9 10 9 9 9 9 9 8 7 7 8 9 9 8 6 7 5 1 2 3 2 0 1 2 2 2 3 5 4 5 7 1 3 5 3 4 4 4 4 5 5 7 7 4 7 6 7 7 6 6 6 7 6 6 6 6 8 10 11 13 14 17 18 18 17 19 20 20 17 18 17 17 15 15 16 16 16 15 15 16 15 15
11 10 10 9 9 9 9 9 9 8 7 8 9 8 7 7 7 8 7 6 6 6 6 5 2 1 0 2 3 2 2 2 4 5 12 3 1 4 5 4 4 3 5 6 6 6 6 5 7 7 7 6 6 7 6 8 8 8 10 11 13 12 13 14 15 17 19 19 18 19 21 21 21 21 17 17 16 15 17 16 16 16 16 16 16
10 11 11 10 10 10 10 9 10 8 8 8 7 7 7 7 7 6 7 7 6 6 4 6 5 4 4 3 2 3 3 3 4 5 5 10 12 2 3 6 3 4 5 6 7 6 7 6 7 7 7 7 7 7 7 8 7 7 8 13 14 15 15 15 15 15 16 18 19 20 21 24 22 21 17 18 17 15 16 17 17 16 16 17 17
10 10 10 10 10 9 9 10 10 9 8 8 8 7 8 8 9 9 8 7 6 5 5 6 5 5 5 4 5 3 2 3 3 2 4 5 11 9 8 3 3 4 6 5 6 6 7 7 6 6 6 7 7 7 7 8 8 8 8 13 15 17 17 17 17 16 16 16 18 19 21 23 24 22 20 21 18 16 16 17 17 17 17 18 18
9 10 10 10 10 10 10 10 9 8 8 8 8 10 9 8 7 7 7 7 6 6 5 4 4 4 4 3 4 4 4 3 1 2 3 5 9 10 10 12 13 4 3 4 6 6 6 6 6 6 7 8 7 7 7 8 8 7 9 14 15 17 18 18 18 18 16 16 16 18 19 21 22 23 20 22 21 19 17 18 18 17 18 18 18
7 8 10 9 9 9 9 9 8 8 9 9 8 7 7 7 6 7 8 8 7 7 7 4 4 5 4 4 3 3 2 2 4 5 4 5 7 9 10 9 11 16 4 5 5 6 5 4 6 6 7 7 8 7 7 8 9 10 13 14 15 17 18 18 18 19 18 18 17 17 18 18 20 21 22 21 23 23 19 18 19 18 17 18 19
7 8 9 9 8 8 7 8 8 8 9 7 7 7 6 6 7 7 6 6 7 7 6 7 8 6 5 4 4 3 3 3 3 3 3 5 5 9 8 10 12 7 6 6 6 7 6 7 6 7 8 7 7 7 7 7 8 14 13 14 16 18 19 19 20 19 20 19 18 18 18 18 18 19 20 23 23 23 21 20 20 18 18 17 19
9 9 9 9 8 9 9 9 8 7 6 7 6 7 7 6 7 7 7 8 7 6 6 6 5 6 6 5 4 4 5 4 4 4 4 4 4 7 6 4 10 13 6 3 6 3 6 6 6 7 7 7 7 7 7 7 8 11 13 11 16 17 18 20 21 21 20 20 20 20 19 19 19 19 22 23 22 25 25 23 20 19 19 19 19
7 7 6 6 7 6 6 7 6 6 7 7 7 6 6 7 6 8 8 6 7 7 6 6 5 4 3 6 6 5 5 4 4 4 4 4 5 5 7 5 6 11 9 7 2 6 2 3 4 6 5 6 7 7 7 8 8 12 14 9 10 15 18 19 20 20 21 21 21 20 19 18 20 20 20 22 23 24 25 24 23 22 20 19 20
6 4 5 6 5 6 7 7 7 7 7 7 7 6 6 5 5 5 5 5 6 6 6 6 7 7 6 5 6 6 5 4 3 5 4 4 4 6 5 10 8 6 9 6 10 6 10 5 5 6 7 7 7 7 7 6 7 12 13 7 7 11 15 19 20 21 21 21 21 21 19 18 18 20 19 20 22 23 28 29 26 24 22 22 21
4 4 5 5 6 6 6 6 5 6 6 6 6 6 5 6 6 5 6 4 6 6 5 5 6 6 5 5 5 7 5 5 4 5 5 5 5 5 4 4 6 12 9 10 7 8 4 6 3 5 6 6 6 6 8 7 7 12 11 6 6 7 12 17 20 21 22 21 21 20 20 19 18 18 18 18 17 18 20 24 25 24 21 17 15
4 3 4 4 4 5 6 6 7 7 7 8 8 8 7 7 7 7 8 6 5 5 5 4 5 5 5 5 5 6 6 5 5 5 5 4 5 5 5 6 6 6 7 8 13 9 2 2 5 3 4 5 6 5 5 5 7 8 6 6 6 7 10 16 19 20 21 22 22 22 21 20 19 19 19 18 17 17 17 17 17 17 16 14 14
3 3 4 5 5 5 6 6 5 5 5 5 5 6 5 6 6 5 5 5 6 4 4 4 6 5 5 5 5 6 5 6 6 5 5 5 6 6 6 6 5 7 7 9 13 6 11 4 5 5 2 4 4 6 4 6 8 10 7 7 6 8 13 17 17 18 20 21 22 22 22 22 20 20 20 19 18 17 17 17 17 17 17 18 20
6 7 6 6 6 6 5 5 5 5 4 5 5 6 5 6 5 6 5 5 6 7 5 5 5 5 7 7 5 5 5 6 6 6 5 5 6 6 6 6 6 7 8 7 11 5 3 10 6 4 4 5 7 7 6 7 9 11 9 8 8 11 15 12 14 17 19 20 21 22 23 24 23 22 21 21 20 21 20 19 18 19 20 21 23
5 5 6 6 7 8 7 7 6 5 6 5 5 5 5 4 5 6 5 5 6 6 7 5 5 5 6 8 7 6 6 6 6 6 6 5 5 6 6 6 7 6 6 8 11 17 8 9 14 10 9 9 7 9 9 7 8 13 9 8 9 11 9 8 12 17 18 20 20 21 22 23 23 23 21 21 22 23 22 21 21 21 22 23 24
5 6 6 6 6 6 7 7 8 8 9 10 8 8 7 8 7 6 7 7 8 8 7 8 4 5 6 7 8 6 5 7 7 6 6 6 6 6 6 6 7 6 6 7 11 15 11 5 11 11 8 6 10 5 10 7 7 8 9 8 7 7 8 8 8 12 17 19 20 21 22 23 23 23 22 21 22 23 23 24 23 21 22 24 24
5 5 5 5 4 5 4 5 4 4 4 4 5 5 6 7 7 5 6 7 7 8 7 9 8 7 8 9 9 6 5 8 8 8 7 7 7 7 7 6 7 8 5 7 11 11 17 8 8 10 10 6 12 6 7 11 7 6 9 9 7 7 8 8 7 8 13 17 19 20 22 23 23 24 24 22 22 23 24 25 24 23 23 23 23
3 3 3 3 3 3 3 4 4 4 4 4 4 4 5 5 7 7 6 7 8 8 9 9 9 8 9 9 10 7 7 9 9 8 7 7 7 7 9 7 8 8 7 6 8 13 15 14 7 10 9 8 9 12 6 7 9 7 9 9 9 7 6 7 8 7 10 17 19 20 21 22 23 24 24 24 23 23 23 24 23 22 22 22 23
2 2 3 3 3 3 3 4 4 4 5 5 4 4 5 6 7 8 7 7 7 8 8 9 9 9 9 11 10 9 8 10 11 9 7 7 7 8 9 9 8 9 8 6 8 11 12 15 11 8 9 10 11 10 7 7 9 9 8 10 6 8 8 7 7 8 9 15 18 20 21 22 23 24 25 25 24 23 23 22 21 22 22 21 22
3 3 3 3 3 4 5 5 5 5 5 5 5 5 5 5 6 7 7 7 8 8 9 9 9 9 10 10 11 10 9 11 12 10 8 10 9 9 10 9 9 8 8 8 9 9 12 15 15 9 7 10 9 12 10 10 10 9 7 9 9 8 8 7 7 8 10 16 18 20 20 21 22 24 25 25 25 25 24 24 22 22 22 22 22
4 4 4 5 5 5 5 5 5 5 5 5 5 6 6 5 6 7 7 8 8 9 9 9 9 9 9 11 10 10 10 11 13 12 10 11 11 11 11 11 10 9 10 11 10 10 11 14 13 14 8 9 10 9 10 8 9 12 11 9 7 6 7 8 9 8 5 6 7 9 14 17 21 24 24 24 26 26 26 26 24 23 23 22 22
4 5 4 4 4 4 5 4 5 5 6 5 6 6 6 6 7 8 9 9 9 9 9 10 10 10 10 10 10 10 10 11 12 13 13 13 11 13 12 12 11 10 11 11 10 11 12 13 14 12 12 9 8 12 8 6 8 9 12 12 11 6 7 8 10 6 5 8 10 15 13 12 12 12 18 24 25 26 27 26 25 25 23 23 22
3 4 5 5 5 4 5 4 5 5 5 5 5 5 6 7 8 8 9 10 10 10 10 10 9 9 10 10 10 9 10 10 11 12 12 12 11 12 11 10 10 11 11 11 11 11 12 13 13 14 11 10 9 8 8 4 8 11 7 7 13 13 9 6 8 9 6 7 8 7 10 12 14 16 20 21 24 26 25 24 25 24 24 23 23
3 3 4 5 5 5 4 5 5 5 5 6 5 6 8 9 8 9 9 10 10 11 11 10 9 10 9 10 10 10 13 18 23 20 19 18 14 13 12 10 10 10 11 11 12 12 12 12 14 12 13 12 10 9 10 8 9 12 9 4 8 11 10 8 8 8 8 8 7 7 8 8 9 9 10 11 13 20 22 25 20 25 25 24 24
2 3 3 4 3 5 6 5 4 5 5 4 8 15 14 10 10 9 9 10 10 10 10 10 10 8 8 9 9 17 19 19 19 20 20 20 21 17 14 13 12 12 12 12 11 10 11 13 14 14 15 14 13 10 10 10 8 7 10 8 10 12 11 11 11 8 6 7 7 9 10 7 8 10 9 12 12 12 11 14 15 16 19 24 22
3 4 4 5 4 5 5 6 6 6 5 6 14 16 16 18 13 12 12 12 12 12 12 12 12 12 11 11 10 12 14 15 14 20 21 22 22 23 24 24 20 16 13 13 12 10 10 11 11 12 13 17 16 10 10 10 9 9 10 10 10 10 12 10 14 10 6 9 8 9 11 7 8 11 11 12 12 9 11 13 16 21 21 23 23
4 3 4 4 5 5 5 5 6 6 6 10 16 17 18 18 16 13 12 11 11 11 12 12 12 12 13 12 11 9 10 11 13 12 14 19 21 22 23 23 24 25 24 18 16 14 12 12 12 15 16 17 15 9 8 8 10 9 9 10 11 11 12 12 10 14 4 10 7 7 11 8 7 10 11 11 10 9 11 14 19 21 23 24 23
3 4 6 6 6 5 6 7 7 7 6 12 17 18 18 18 19 16 11 11 12 11 12 13 13 12 12 12 12 10 9 17 13 11 11 12 16 21 22 21 21 21 21 23 23 17 13 14 15 18 16 16 18 15 11 9 9 12 10 11 10 10 11 12 13 12 10 5 6 8 12 8 8 9 12 12 10 8 10 16 21 23 25 25 24
4 4 4 5 5 6 6 8 8 8 8 12 18 19 19 20 19 17 11 12 11 12 12 12 12 12 13 12 12 12 11 12 12 13 13 13 13 13 13 12 13 15 19 22 23 25 22 16 14 17 18 13 16 17 15 15 14 12 11 12 9 11 11 13 13 14 10 7 9 6 12 9 7 8 13 12 8 8 10 14 21 24 25 26 26
5 5 6 6 5 5 6 7 8 9 7 16 18 19 19 20 21 18 11 11 10 11 11 12 13 13 13 12 13 14 13 13 12 15 15 15 14 12 12 12 13 13 14 15 15 14 14 13 15 17 18 16 17 19 17 11 11 10 12 14 15 14 15 15 15 14 13 7 8 7 16 12 6 9 11 11 6 8 10 13 21 23 25 26 28
3 3 4 3 6 6 6 7 8 10 8 16 18 19 20 20 22 12 10 11 11 11 11 12 13 12 12 12 13 14 14 14 18 24 22 18 15 15 15 13 13 12 12 15 21 20 19 16 15 17 17 18 21 19 18 17 15 14 14 14 14 14 16 17 18 14 16 7 11 11 12 14 5 9 10 9 6 9 9 8 16 24 25 26 27
5 4 4 4 5 6 8 7 9 10 8 12 18 20 20 21 17 9 10 9 11 11 13 14 13 13 12 13 13 14 15 15 20 26 26 25 17 15 15 15 12 12 12 11 18 24 24 26 28 30 31 31 30 29 30 31 23 17 13 14 16 14 14 15 14 14 15 11 8 11 12 15 9 7 10 6 7 9 9 8 9 18 25 26 27
6 5 5 6 5 5 7 8 7 11 11 12 18 20 21 21 18 12 10 8 10 12 13 13 12 12 13 21 19 17 18 18 25 28 28 23 16 14 13 13 14 12 11 11 11 13 24 29 30 31 30 29 29 29 30 29 28 21 12 15 15 11 14 13 15 13 13 12 10 9 10 15 11 8 7 5 4 6 7 7 10 10 18 22 28
6 5 6 7 7 5 6 8 12 13 11 12 17 19 21 20 16 10 9 9 8 8 11 12 12 13 12 15 23 22 21 23 31 28 29 24 16 12 12 12 14 14 13 12 12 13 12 12 14 15 17 20 19 16 17 28 28 23 15 13 12 12 15 15 15 13 15 12 10 13 13 10 12 7 6 4 8 5 6 8 8 9 9 10 13
Wind_Direction
167 176 160 191 191 144 169 273 207 174 175 151 146 158 157 159 164 159 159 162 157 156 118 72 81 91 92 322 324 319 323 321 313 308 317 337 319 316 322 320 312 306 301 302 296 282 250 242 238 256 269 253 253 232 250 240 259 249 270 274 300 1 338 320 341 319 316 340 339 331 359 358 351 20 8 357 22 13 6 26 19 16 23 25 28
169 165 170 204 190 149 181 195 244 307 163 148 174 167 166 152 147 148 159 172 185 196 137 236 13 31 66 329 309 299 288 300 314 314 307 319 317 314 323 325 321 311 308 309 297 291 270 257 256 249 260 257 254 266 234 254 244 260 249 284 33 298 305 306 305 348 342 320 316 315 303 319 337 356 10 3 6 5 357 354 10 13 26 23 33
166 158 161 174 218 166 173 176 181 204 260 148 138 172 156 164 170 171 177 175 196 153 152 197 340 0 23 9 298 338 319 323 320 315 318 314 321 324 322 325 323 320 316 308 305 309 309 285 276 275 256 263 265 258 257 251 261 251 240 122 236 276 297 310 271 163 317 305 302 288 293 11 28 355 340 24 6 4 4 1 357 354 13 21 39
158 160 171 195 188 176 164 202 208 197 213 176 149 120 132 119 130 136 135 136 136 104 67 162 304 334 354 356 353 348 327 333 326 321 314 312 318 325 332 322 322 322 322 320 312 316 320 329 331 337 309 273 274 275 263 263 273 268 201 219 267 278 264 257 284 298 291 294 294 291 289 289 305 307 337 332 343 338 354 343 337 344 345 340 8
157 159 163 168 193 196 191 192 209 196 100 89 107 115 113 113 88 100 105 111 128 149 60 63 327 317 352 316 16 316 337 347 324 330 322 315 316 327 327 324 319 321 323 325 325 324 323 323 330 330 327 319 310 296 279 268 251 260 212 253 284 295 290 276 261 250 262 272 284 274 269 275 290 303 307 306 308 314 308 325 326 330 325 326 323
144 175 191 185 179 182 191 213 206 173 157 148 145 145 136 146 146 138 155 160 187 197 175 270 286 303 300 307 341 311 343 336 310 298 303 300 312 324 320 318 318 317 317 322 324 325 326 323 324 321 325 323 317 307 307 316 285 248 250 249 256 228 243 251 267 238 246 256 265 272 269 268 274 264 284 304 301 291 296 294 298 298 340 316 291
13 150 168 181 173 201 222 254 180 162 166 158 147 156 167 178 154 160 143 175 176 190 191 231 263 283 289 333 292 306 318 290 291 272 262 267 307 303 311 312 313 317 313 315 316 321 324 324 322 324 323 320 317 312 308 301 301 293 274 244 252 262 211 234 264 264 260 252 257 265 267 269 267 269 269 280 291 291 285 312 330 315 319 327 308
38 35 27 22 13 11 12 22 22 13 20 101 150 180 179 169 177 169 173 215 200 237 185 218 226 262 283 307 325 337 313 306 292 285 272 284 274 288 295 299 300 296 303 307 312 312 319 323 322 323 327 326 320 314 308 302 302 300 293 262 252 256 289 135 265 234 236 238 237 262 254 247 264 264 271 270 276 289 282 288 294 290 294 302 302
30 46 61 52 50 42 27 39 42 40 31 19 2 9 12 359 13 351 338 315 208 267 283 311 279 280 324 323 332 318 296 275 271 274 315 304 309 298 289 282 285 293 287 296 307 310 314 314 322 329 332 328 322 314 307 306 303 303 299 295 272 259 248 229 239 218 230 231 234 240 246 254 256 261 270 278 273 281 283 282 287 282 280 269 282
37 35 50 49 55 61 57 62 68 64 56 45 38 32 38 25 13 37 17 7 1 349 321 341 332 321 315 300 289 292 275 285 287 296 312 296 301 293 277 278 284 275 277 291 293 304 302 310 320 324 323 325 321 314 311 311 316 313 309 302 298 283 220 247 253 234 225 240 238 246 255 244 254 268 267 271 271 270 279 282 278 274 272 265 268
39 40 46 45 43 39 36 26 48 81 89 79 64 57 58 55 41 21 44 58 38 12 353 351 341 323 299 285 299 281 280 278 274 278 268 250 255 264 279 269 262 268 273 274 281 285 292 302 310 310 310 319 322 319 320 320 324 319 312 311 300 281 269 249 255 256 247 244 262 156 216 236 248 257 262 264 262 265 273 272 266 261 258 254 252
35 38 54 56 54 47 54 39 40 49 50 47 44 53 67 63 56 44 23 18 53 42 34 13 325 306 298 309 281 270 274 249 268 258 256 251 248 250 259 266 260 273 274 269 276 272 285 293 293 295 305 312 314 318 317 320 323 317 311 310 312 298 257 253 233 237 253 250 170 211 216 246 250 260 259 258 265 271 265 263 262 262 260 259 256
26 34 35 45 49 39 40 38 36 47 56 61 69 72 66 76 91 77 71 37 19 27 4 88 7 320 333 315 318 263 259 260 260 268 254 256 251 254 262 273 264 266 267 290 283 291 289 287 290 298 298 298 303 309 312 312 317 311 309 310 309 310 304 260 246 247 247 166 208 215 246 252 263 269 262 260 265 260 257 258 266 262 261 260 259
28 31 35 32 34 34 35 34 33 46 66 63 52 51 44 37 44 49 24 88 47 357 307 7 20 48 332 325 324 319 307 254 259 270 302 281 251 251 266 274 284 277 306 298 281 280 282 282 290 288 284 288 289 296 299 302 303 306 306 308 306 306 304 301 266 260 243 183 212 221 230 256 267 266 268 263 258 257 257 255 257 262 266 265 266
34 37 40 30 32 35 31 28 32 25 36 37 34 37 32 40 37 53 22 11 75 336 32 50 53 212 221 309 330 349 328 337 344 298 279 271 266 267 285 281 264 267 286 299 286 294 289 271 271 270 271 274 276 279 280 281 284 290 299 302 304 301 300 298 297 273 258 207 194 208 239 266 259 259 253 253 256 255 254 253 253 257 261 265 265
38 40 43 39 37 38 34 34 33 30 34 37 32 29 18 18 22 32 67 27 354 340 1 118 128 40 347 50 273 36 319 336 317 290 282 276 300 271 260 261 273 310 343 288 275 268 267 266 266 261 261 258 258 262 267 268 277 287 286 292 293 293 291 292 290 294 276 257 246 249 250 229 237 231 249 255 259 260 256 252 260 259 256 253 251
39 40 43 43 41 40 42 38 39 31 35 39 34 27 23 19 16 16 20 27 353 354 353 38 103 47 144 341 337 343 231 283 330 298 348 21 321 297 292 287 287 279 269 269 268 261 264 272 265 269 264 262 262 262 264 267 270 269 277 280 280 282 285 284 284 284 286 280 266 253 242 220 234 234 243 255 259 261 262 260 257 257 257 254 251
36 37 38 40 43 40 43 44 40 36 34 40 33 26 22 20 13 21 14 2 3 36 352 345 250 194 195 211 198 262 312 316 5 305 326 221 270 303 274 267 269 269 264 266 269 272 258 262 265 266 264 262 261 260 257 259 254 253 255 260 262 266 272 275 277 277 277 276 274 273 269 233 233 246 244 241 248 258 260 259 259 258 258 254 250
33 35 36 38 42 40 41 44 43 37 31 39 34 25 14 18 6 22 17 13 17 24 9 344 346 341 230 268 279 257 202 315 278 322 314 319 120 305 301 279 266 269 277 265 269 276 271 257 270 266 269 264 264 261 261 258 253 248 243 247 253 255 260 266 268 272 274 275 275 275 271 273 257 246 237 219 233 244 255 257 257 258 258 257 254
32 33 33 34 37 39 38 42 44 37 36 39 33 17 21 20 22 20 24 26 24 31 2 9 23 329 356 325 270 259 227 236 237 245 273 301 303 281 262 277 306 273 254 266 267 263 274 268 259 264 264 264 256 258 259 260 260 257 256 252 251 251 251 255 258 261 266 270 272 270 272 271 268 260 222 220 225 232 247 251 254 256 259 259 254
34 32 32 33 34 36 36 39 40 35 36 35 31 27 28 23 17 19 20 18 21 8 30 11 12 354 351 346 350 334 320 230 237 201 246 288 293 310 307 300 284 262 260 249 261 260 254 262 260 260 265 263 253 249 253 257 259 254 254 251 250 251 252 252 251 251 253 258 264 267 268 270 270 269 247 221 223 225 235 246 250 252 256 257 256
27 30 31 28 30 30 35 36 35 33 34 33 29 27 22 23 21 19 16 22 10 17 26 6 11 355 17 347 4 340 344 355 24 340 285 219 274 303 309 317 312 281 236 267 257 253 253 253 262 259 259 261 258 249 247 251 253 256 253 249 249 252 253 254 253 252 250 250 252 259 263 267 271 271 264 242 235 231 221 235 246 248 253 255 255
27 29 30 25 28 30 31 31 31 30 30 28 27 25 18 19 17 24 27 21 8 1 6 14 10 8 9 21 9 8 329 306 304 318 313 308 306 299 312 309 299 305 282 252 270 267 262 248 255 256 254 257 259 250 243 244 249 248 248 251 248 247 250 250 251 251 251 250 251 253 258 261 268 271 271 267 250 235 224 230 238 244 249 253 254
30 27 24 18 23 25 27 31 30 25 27 21 23 21 16 18 22 26 23 19 15 10 5 4 360 355 359 2 346 329 315 291 296 306 304 297 294 297 304 310 298 272 305 300 256 259 253 252 243 248 250 254 257 253 250 246 247 247 251 250 248 249 250 251 251 249 248 249 249 252 254 257 259 266 267 266 271 244 225 228 234 237 240 249 253
20 24 16 14 16 21 22 22 21 21 18 22 20 21 18 19 19 18 21 22 10 3 6 357 350 356 334 329 328 325 303 302 307 296 293 290 293 294 284 283 292 305 302 265 297 255 237 246 243 244 248 255 257 257 250 251 248 250 246 249 246 248 249 251 253 254 253 250 247 247 250 250 255 259 261 262 262 258 238 238 238 240 246 249 251
19 22 2 6 20 20 21 23 22 15 18 16 17 16 19 21 18 17 8 2 5 3 356 349 348 345 337 335 333 324 308 313 303 308 296 317 304 288 298 296 286 294 302 307 251 317 306 263 264 259 265 262 262 260 260 248 255 258 256 252 250 248 249 249 250 250 251 251 250 247 245 247 251 255 257 254 251 248 243 241 243 243 244 247 248
26 3 6 18 16 19 20 20 14 12 10 13 12 13 15 18 23 18 7 359 1 355 350 353 347 342 343 342 320 319 311 307 311 294 294 277 271 283 301 307 302 277 294 292 298 260 273 272 249 252 245 254 260 264 262 264 264 267 266 254 256 250 248 252 252 252 251 250 248 247 247 246 246 250 252 249 246 243 240 241 243 244 248 249 249
17 21 10 20 14 15 17 18 12 13 12 11 10 12 10 13 11 14 8 357 360 354 341 342 336 332 328 323 332 315 318 317 306 289 282 271 272 278 279 270 282 305 310 301 291 288 219 265 295 248 252 255 266 261 271 270 265 266 271 263 255 257 252 253 255 255 255 253 251 249 247 246 244 244 247 246 241 240 239 240 241 243 247 252 253
20 19 12 12 18 18 17 11 11 8 7 6 5 5 6 9 7 2 359 352 354 342 333 331 319 316 317 321 311 303 307 313 310 299 288 283 268 258 244 247 252 268 300 299 302 308 289 176 296 282 233 256 264 280 293 285 281 282 273 256 247 252 249 251 254 257 258 258 257 254 249 244 242 241 243 244 239 235 235 236 240 246 251 245 246
30 15 19 16 17 18 21 12 11 7 5 355 2 359 0 3 355 353 339 338 339 334 333 325 320 313 307 305 306 305 302 310 303 299 294 283 282 271 258 251 228 240 253 278 284 282 295 265 222 267 298 281 265 279 271 274 269 274 266 255 247 247 250 250 251 254 256 256 256 256 252 247 241 237 238 240 239 234 230 232 232 233 235 237 237
18 13 11 11 9 8 14 6 4 2 357 358 359 359 0 353 346 340 329 338 335 329 325 331 320 322 317 313 305 300 298 297 297 299 293 289 280 277 271 259 250 232 252 257 279 264 183 292 267 230 255 276 279 277 279 271 269 267 265 256 249 243 246 252 248 249 251 252 252 253 253 251 247 239 232 235 237 236 233 230 230 232 233 235 237
17 12 11 7 3 2 1 358 354 356 356 359 360 356 351 349 336 336 328 333 326 320 317 317 315 313 309 310 311 315 311 301 297 291 290 286 278 280 272 265 260 249 242 258 256 271 263 276 286 286 280 280 273 279 272 269 264 267 268 260 260 258 257 257 251 248 248 248 248 250 252 251 249 245 238 231 233 235 236 235 233 232 233 233 234
11 9 10 3 1 358 354 353 352 348 350 347 352 350 347 341 340 332 330 332 326 320 317 313 310 306 304 302 305 307 304 304 300 302 299 289 284 275 270 267 267 256 245 253 265 276 276 221 270 284 287 299 288 241 270 264 270 269 265 264 260 256 254 251 253 248 246 247 247 247 248 250 251 248 244 237 232 233 235 238 238 235 234 233 233
13 1 357 351 351 345 347 334 333 331 327 330 325 335 328 327 324 323 321 319 313 310 312 311 316 316 311 308 306 306 299 293 298 300 299 301 298 293 282 269 265 273 235 253 267 271 283 277 273 283 287 275 280 270 254 282 268 263 269 269 257 246 252 252 252 250 243 246 247 246 245 246 248 248 247 242 237 232 231 234 238 236 234 234 233
346 347 335 336 329 331 329 321 324 327 326 322 318 317 313 312 312 312 311 310 310 310 312 308 311 311 310 307 305 312 308 301 297 293 295 292 288 287 288 282 278 274 266 240 263 275 279 280 267 278 283 286 273 286 273 267 274 266 273 270 267 262 248 251 252 254 245 246 248 248 248 246 245 246 247 246 240 236 233 231 234 237 235 232 231
351 331 336 331 335 331 330 325 329 327 325 321 318 312 308 310 308 307 307 304 300 300 298 302 306 306 302 304 303 309 308 301 300 302 295 284 286 285 283 284 279 281 276 262 250 264 279 286 276 261 277 284 284 279 280 268 277 274 259 269 263 262 260 250 246 254 245 246 248 249 249 247 245 244 244 245 244 241 237 231 229 235 237 232 228
358 349 347 354 344 345 343 337 332 333 326 322 320 313 307 300 297 301 303 302 300 297 295 294 296 298 296 291 297 303 305 300 298 298 301 298 292 287 283 281 280 279 278 272 270 264 274 276 283 273 267 269 270 281 285 287 284 274 267 258 260 257 259 248 252 243 244 244 244 244 245 246 245 243 242 242 243 241 239 238 231 229 234 234 229
355 356 352 353 348 338 338 331 328 325 327 323 318 314 309 310 306 302 301 300 298 298 297 296 295 295 295 295 295 298 297 296 295 297 298 295 295 290 287 285 282 278 276 274 269 271 269 273 278 286 269 269 276 263 275 274 281 287 281 268 259 248 251 263 247 247 237 236 242 244 244 246 246 246 244 241 241 240 238 237 233 228 226 228 229
350 351 348 343 340 335 326 328 329 331 326 321 318 314 316 313 310 306 307 305 302 301 298 297 298 295 293 293 292 292 289 287 290 293 295 291 287 285 284 287 285 282 279 276 274 270 270 276 279 274 279 267 258 276 270 257 260 264 280 292 282 249 238 239 262 246 228 240 240 240 239 234 236 240 243 245 243 240 238 236 234 230 226 224 227
1 349 344 339 331 330 321 335 329 328 323 321 317 318 312 311 310 308 307 306 303 300 297 294 293 292 294 294 293 293 292 288 288 289 288 288 287 281 280 279 281 281 281 283 282 277 274 273 272 282 276 279 271 263 278 280 280 271 245 254 277 282 264 240 238 252 234 231 245 248 247 249 247 246 248 247 245 243 241 239 235 230 227 224 223
359 338 343 333 325 330 333 329 330 326 322 319 326 318 316 313 310 306 307 303 301 298 297 295 293 295 293 294 293 293 292 292 292 292 290 290 291 292 290 289 291 288 284 280 278 277 275 275 277 273 276 276 271 275 276 265 254 265 277 221 262 268 279 276 258 229 230 232 241 244 243 228 238 236 233 237 238 238 240 238 236 232 227 223 222
346 340 333 325 330 332 329 325 326 321 314 319 309 311 314 313 312 308 304 301 300 301 301 302 299 296 290 291 292 301 302 300 299 298 295 292 289 285 286 286 283 280 279 281 281 283 287 286 283 288 286 278 273 265 268 264 268 275 279 276 269 277 279 273 274 242 203 217 239 247 245 225 220 240 229 236 239 231 234 234 232 229 225 223 219
348 346 329 335 343 328 327 324 322 319 315 308 310 312 313 312 311 307 306 305 303 303 302 302 303 306 307 306 303 304 303 303 304 301 298 298 297 294 291 288 284 281 282 281 278 279 278 271 277 276 273 279 277 265 258 272 269 266 272 275 274 278 275 282 282 285 183 190 216 243 257 226 202 235 235 234 238 229 230 234 230 229 225 224 221
348 337 339 339 329 328 322 320 314 312 309 309 310 311 311 311 311 308 306 302 302 300 299 298 299 302 304 304 303 304 300 297 295 296 296 294 293 292 290 287 284 281 278 278 283 283 279 280 276 271 274 272 281 276 268 263 270 271 263 264 266 268 273 269 264 271 254 185 200 229 252 236 195 231 248 240 235 226 230 233 230 228 225 222 218
333 347 340 335 329 330 323 318 315 310 303 308 307 310 311 313 313 312 304 302 298 297 297 298 298 299 300 299 298 294 293 295 295 291 287 283 285 287 289 291 292 292 290 285 279 277 282 280 279 281 277 286 288 287 293 294 289 275 270 263 259 260 262 265 265 268 269 183 196 230 249 236 179 221 245 244 234 225 232 236 233 230 228 225 219
344 334 333 329 326 322 320 314 309 307 302 305 308 311 314 314 314 313 305 304 299 298 299 299 297 294 293 293 294 293 292 292 292 292 289 288 287 289 291 292 291 288 287 287 288 288 289 287 286 281 282 284 282 286 291 296 295 294 297 289 289 276 269 265 271 267 263 168 203 231 259 244 186 205 241 249 227 222 229 225 227 229 229 227 225
337 330 327 324 317 315 310 306 302 302 299 306 310 314 315 315 314 315 308 305 299 296 294 292 290 289 288 289 289 289 290 289 287 286 288 289 288 283 280 278 280 283 284 284 282 278 274 270 273 275 279 280 281 285 292 295 283 279 273 273 277 279 280 279 272 266 269 214 211 209 258 265 199 203 235 245 214 220 229 224 224 226 227 227 227
300 303 299 301 305 307 302 300 301 297 298 308 311 314 314 315 315 314 309 299 296 292 292 294 292 289 287 285 287 288 288 287 286 288 288 289 286 283 279 273 267 264 260 262 274 275 274 274 272 273 272 273 274 273 274 272 270 272 278 282 278 269 266 262 262 263 261 221 200 212 250 260 213 201 234 233 198 228 228 222 222 225 225 224 224
316 314 304 302 300 300 301 299 299 297 296 307 311 313 315 315 316 302 298 293 293 293 292 294 291 288 287 284 285 288 288 287 286 288 288 288 285 277 269 266 263 263 264 256 266 276 278 277 276 276 278 280 282 283 284 284 285 288 288 280 268 267 267 267 262 256 254 248 225 203 236 258 234 203 238 230 196 224 227 213 217 223 224 224 224
313 306 306 302 291 291 294 296 295 298 299 307 311 312 312 312 310 306 300 286 279 286 289 290 291 287 286 288 287 287 286 283 284 285 285 285 278 275 275 275 272 265 260 258 262 262 264 270 273 275 277 278 279 280 281 283 284 285 284 279 286 295 281 273 269 261 262 247 231 177 227 239 255 227 225 263 226 233 218 215 214 217 221 226 225
292 302 302 299 295 287 281 286 296 298 295 302 307 307 308 308 308 297 289 284 275 269 288 289 283 281 273 273 280 285 287 286 287 288 288 289 285 279 273 268 271 268 268 266 262 264 262 261 260 261 264 265 268 267 265 269 273 275 271 274 286 281 282 281 279 280 270 250 227 173 222 239 239 237 175 251 249 242 212 207 211 208 210 212 222